Regional Weather Roundup
Issued by NWS Boston, MA

Home | Current Version | Previous Version | Text Only | Print | Product List | Glossary On
Versions: 1 2 3 4 5 6 7 8 9 10 11 12 13 14 15 16 17 18 19 20 21 22 23 24 25 26 27 28 29 30 31 32 33 34 35 36 37 38 39 40 41 42 43 44 45 46 47 48 49 50
000
ASUS41 KBOX 232010
RWRBOX

REGIONAL WEATHER ROUNDUP
NATIONAL WEATHER SERVICE BOSTON/NORTON MA
400 PM EDT THU MAY 23 2019

NOTE:  "FAIR" INDICATES FEW OR NO CLOUDS BELOW 12,000 FEET WITH NO
SIGNIFICANT WEATHER AND/OR OBSTRUCTIONS TO VISIBILITY.

MAZALL-232100-
EASTERN MASSACHUSETTS

CITY           SKY/WX    TMP DP  RH WIND       PRES   REMARKS
BOSTON         CLOUDY    68  48  48 SW25G32   30.00F
BEVERLY        FAIR      68  46  45 SW20G26   29.99F
LAWRENCE       FAIR      69  48  47 S13G20    30.00S
BEDFORD        PTSUNNY   68  46  45 SW12G21   29.99S
BLUE HILL        N/A     61  49  64 S17G30    30.00F
NORWOOD        CLOUDY    67  50  54 S16G23    30.01F
MARSHFIELD     CLOUDY    64  50  59 SW16G29   30.03F
PLYMOUTH       CLOUDY    62  49  62 SW17G24   30.05F
TAUNTON        CLOUDY    63  50  62 S12G21    30.05F
NEW BEDFORD    CLOUDY    61  50  67 SW16G24   30.06F
$$

MAZALL-232100-
CAPE COD AND THE ISLANDS

CITY           SKY/WX    TMP DP  RH WIND       PRES   REMARKS
FALMOUTH       CLOUDY    63  50  63 S21       30.06F
HYANNIS        CLOUDY    61  46  59 SW12G23   30.07F
CHATHAM        CLOUDY    60  50  69 SW14G24   30.08F
PROVINCETOWN   CLOUDY    59  51  75 S14       30.06F
NANTUCKET      CLOUDY    57  49  74 S20       30.10F
MARTHAS VNYRD  CLOUDY    60  50  69 S20G29    30.08F
$$

MAZALL-232100-
CENTRAL AND WESTERN MASSACHUSETTS

CITY           SKY/WX    TMP DP  RH WIND       PRES   REMARKS
WORCESTER      CLOUDY    64  48  56 SW17      30.02F
FITCHBURG      PTSUNNY   69  46  43 S8        29.99S
ORANGE         LGT RAIN  65  50  58 S10       30.01S
SPRINGFIELD    LGT RAIN  66  49  53 S12       29.99S
WESTFIELD      LGT RAIN  66  50  56 S12       29.99R
NORTH ADAMS    CLOUDY    63  60  90 N3        29.95F
PITTSFIELD     CLOUDY    62  58  86 SE6       29.95F
$$

RIZALL-232100-
RHODE ISLAND

CITY           SKY/WX    TMP DP  RH WIND       PRES   REMARKS
PROVIDENCE     CLOUDY    63  52  67 S17       30.05F
NEWPORT        CLOUDY    59  52  77 S15G23    30.06F
BLOCK ISLAND   CLOUDY    58  52  80 S18       30.06F
SMITHFIELD     CLOUDY    62  50  64 SW8       30.03F
WESTERLY       CLOUDY    60  53  77 S9        30.06F
$$

CTZALL-232100-
CONNECTICUT

CITY           SKY/WX    TMP DP  RH WIND       PRES   REMARKS
BRADLEY INTL   CLOUDY    68  49  50 S16G24    30.00S THUNDER
HARTFORD       FAIR      67  51  56 S13G21    30.00F
BRIDGEPORT     PTSUNNY   67  55  65 SW9       30.01F
DANBURY        FAIR      69  53  56 SW10      30.01F
GROTON         CLOUDY    61  52  72 S12       30.03F
NEW HAVEN      PTSUNNY   67  57  70 S13       30.02F
CHESTER        FAIR      63  55  77 S8G16     30.03F
MERIDEN        PTSUNNY   68  52  56 S14G20    30.00F
WILLIMANTIC    FAIR      64  50  60 S13G18    30.02F
OXFORD         PTSUNNY   66  54  65 S7        30.02F
$$

MEZ002-015-021-024-NHZ003-005-008-011-012-014-VTZ005-008-232100-
NORTHERN NEW ENGLAND

CITY           SKY/WX    TMP DP  RH WIND       PRES   REMARKS
PORTLAND ME    CLOUDY    59  49  69 S12       29.99F
BANGOR ME      CLOUDY    61  44  53 S13       30.01F
CONCORD NH     PTSUNNY   69  54  58 S14       29.96S
MANCHESTER NH  CLOUDY    71  50  47 S10       29.95F
NASHUA NH      PTSUNNY   70  51  51 VRB6      29.98F
PORTSMOUTH NH  CLOUDY    69  52  55 S8        29.95
JAFFREY NH     PTSUNNY   65  51  60 SW10      30.00F
KEENE NH       LGT RAIN  65  56  72 SE6       29.96F
BURLINGTON VT  LGT RAIN  68  56  65 SE12      29.83F
MT. WASHINGTON FOG       43  43 100 W21         N/A  VSB 1/8
$$

NYZ052-076-232100-
EASTERN NEW YORK

CITY           SKY/WX    TMP DP  RH WIND       PRES   REMARKS
ALBANY         CLOUDY    65  59  81 S7        29.93F
NEW YORK CITY  TSTM      73  55  53 W12       30.02R
$$

ANZALL-232100-
MARINE OBSERVATIONS

STATION/POSITION TIME  TEMP    WIND        PRES    VSBY  WAVE
                       AIR SEA DIR/SP/G                  HT/PER
                 (UTC) (F)     (DEG/KT/KT) (MB)    (MI)  (FT/S)
BOSTON BUOY      1950   59 53  200/ 16/ 19 1016.0F         3/ 4
BUZZARDS BAY     NOT AVBL
NANTUCKET SOUND  1950      55  190/ 19/ 25 1018.3F         2/ 4
MASS BAY-STELLWA 1904   55 52  200/ 12/ 12 1015.6F  1 7/8  2/ 4
ISLE OF SHOALS   1900   57     180/ 20/ 23 1015.4F
S OF BLOCK IS    2000      53                N/A           3/ 4
$$

......................KEY.........................
  SKY/WX - SKY CONDITION/PRESENT WEATHER
  TMP    - TEMPERATURE IN FAHRENHEIT
  DWPT   - DEWPOINT IN FAHRENHEIT
  RH     - RELATIVE HUMIDITY IN PERCENT
  WIND   - DIRECTION AND SPEED IN MPH
  PRES   - MEAN SEA LEVEL PRESSURE IN INCHES OF HG
  WCI    - WIND CHILL INDEX
  VSB    - VISIBILITY IN MILES
  HX     - HEAT INDEX
  TC     - TEMPERATURE IN CELSIUS
  VRB    - VARIABLE WIND DIRECTION
  N/A    - NOT AVAILABLE



USA.gov is the U.S. government's official web portal to all federal, state and local government web resources and services.